Hartford, CT

6:17 AM EDT on July 23, 2017 (GMT -0400)
Hartford-brainard

Weather History for KHFD - October, 2012

Change the Weather History Date:

Monday, October 29, 2012

  Actual Average Record
Temperature  
Mean Temperature 58 °F -  
Max Temperature 66 °F 59 °F 76 °F (1946)
Min Temperature 51 °F 36 °F 20 °F (1940)
Degree Days  
Heating Degree Days 6    
Growing Degree Days 8 (Base 50)    
Moisture  
Dew Point 52 °F    
Average Humidity 85    
Maximum Humidity 89    
Minimum Humidity 78    
Precipitation  
Precipitation 0.45 in - - ()
Sea Level Pressure  
Sea Level Pressure 29.33 in    
Wind  
Wind Speed 16 mph (NNE)    
Max Wind Speed 30 mph    
Max Gust Speed 50 mph    
Visibility 6 miles    
Events Rain    
Averages and records for this station are not official NWS values.
T = Trace of Precipitation, MM = Missing Value Source: NWS Daily Summary

Daily Weather History Graph

Daily Weather History Graph

Search for Another Location

Airport or City:

Trip Planner

Search our weather history database for the weather conditions in past years. The results will help you decide how hot, cold, wet, or windy it might be!

Date:

Astronomy

Oct. 29, 2012 Rise Set
Actual Time 7:19 AM EDT 5:48 PM EDT
Civil Twilight 6:50 AM EDT 6:16 PM EDT
Nautical Twilight 6:18 AM EDT 6:49 PM EDT
Astronomical Twilight 5:45 AM EDT 7:21 PM EDT
Moon 5:38 PM EDT (10/29) 7:07 AM EDT (10/29)
Length of Visible Light 11h 26m
Length of Day
10h 28m
Full, 100% of the Moon is Illuminated
Oct 29
Full
Oct 29
Full
Nov 6
Last Quarter
Nov 13
New
Nov 20
First Quarter

Hourly Weather History & Observations

Time (EDT) Temp. Dew Point Humidity Pressure Visibility Wind Dir Wind Speed Gust Speed Precip Events Conditions
12:53 AM 52.0 °F 46.9 °F 83% 29.71 in 10.0 mi NNE 12.7 mph - N/A   Overcast
1:53 AM 52.0 °F 46.9 °F 83% 29.68 in 10.0 mi North 10.4 mph - 0.00 in   Overcast
2:53 AM 52.0 °F 48.0 °F 86% 29.64 in 8.0 mi North 13.8 mph - N/A   Overcast
3:15 AM 51.8 °F 48.2 °F 88% 29.62 in 5.0 mi North 12.7 mph 21.9 mph N/A   Overcast
3:25 AM 51.8 °F 48.2 °F 88% 29.61 in 5.0 mi North 11.5 mph 20.7 mph N/A   Overcast
3:37 AM 51.8 °F 48.2 °F 88% 29.60 in 7.0 mi North 15.0 mph 20.7 mph N/A   Overcast
3:53 AM 52.0 °F 48.9 °F 89% 29.60 in 8.0 mi North 16.1 mph 20.7 mph N/A   Overcast
4:03 AM 51.8 °F 48.2 °F 88% 29.60 in 8.0 mi North 15.0 mph - N/A   Overcast
4:53 AM 53.1 °F 48.9 °F 86% 29.57 in 9.0 mi North 13.8 mph - 0.00 in   Overcast
5:53 AM 53.1 °F 48.9 °F 86% 29.53 in 10.0 mi North 17.3 mph 26.5 mph N/A   Overcast
6:26 AM 53.6 °F 48.2 °F 82% 29.52 in 9.0 mi North 15.0 mph 24.2 mph N/A   Overcast
6:53 AM 53.1 °F 48.9 °F 86% 29.51 in 8.0 mi North 16.1 mph 24.2 mph 0.00 in Rain Light Rain
7:53 AM 53.1 °F 50.0 °F 89% 29.50 in 6.0 mi North 16.1 mph 24.2 mph 0.00 in   Overcast
8:33 AM 53.6 °F 50.0 °F 88% 29.48 in 4.0 mi NNE 15.0 mph 23.0 mph 0.00 in Rain Light Rain
8:37 AM 53.6 °F 50.0 °F 88% 29.47 in 2.5 mi North 19.6 mph 25.3 mph 0.00 in Rain Light Rain
8:46 AM 53.6 °F 50.0 °F 88% 29.46 in 4.0 mi North 15.0 mph 25.3 mph 0.00 in Rain Light Rain
8:53 AM 54.0 °F 50.0 °F 86% 29.46 in 6.0 mi North 17.3 mph 24.2 mph 0.00 in Rain Light Rain
9:53 AM 55.0 °F 51.1 °F 86% 29.41 in 10.0 mi North 15.0 mph 25.3 mph 0.00 in   Overcast
10:53 AM 59.0 °F 52.0 °F 78% 29.35 in 10.0 mi NNE 19.6 mph 33.4 mph N/A   Overcast
11:53 AM 60.1 °F 53.1 °F 78% 29.28 in 10.0 mi NNE 27.6 mph 41.4 mph 0.00 in   Overcast
12:38 PM 59.0 °F 53.6 °F 82% 29.21 in 2.0 mi NNE 23.0 mph 49.5 mph 0.02 in Rain Rain
12:53 PM 60.1 °F 54.0 °F 80% 29.20 in 2.0 mi NNE 25.3 mph 39.1 mph 0.03 in Rain Rain
1:53 PM 60.1 °F 55.0 °F 83% 29.12 in 2.5 mi NE 26.5 mph 36.8 mph 0.03 in Rain Rain
2:53 PM 61.0 °F 55.9 °F 83% 29.05 in 2.5 mi NE 28.8 mph 42.6 mph 0.07 in Rain Rain
3:08 PM 60.8 °F 55.4 °F 82% 29.03 in 3.0 mi NNE 26.5 mph 40.3 mph 0.00 in Rain Rain
3:15 PM 60.8 °F 55.4 °F 82% 29.01 in 2.5 mi NE 29.9 mph 41.4 mph 0.00 in Rain Rain
4:53 PM 61.0 °F 57.0 °F 87% 28.95 in 2.0 mi NE 25.3 mph 44.9 mph 0.08 in Rain Rain
5:00 PM 60.8 °F 57.2 °F 88% 28.94 in 1.0 mi NE 16.1 mph 36.8 mph 0.03 in Rain Rain
5:25 PM 62.6 °F 57.2 °F 82% 28.94 in 2.5 mi NE 17.3 mph 34.5 mph 0.11 in Rain Rain
5:50 PM 66.2 °F 60.8 °F 83% 28.95 in 6.0 mi East 15.0 mph 35.7 mph 0.17 in Rain Rain
5:53 PM 66.0 °F 60.1 °F 81% 28.95 in 6.0 mi East 15.0 mph 35.7 mph 0.18 in Rain Rain
6:10 PM 66.2 °F 60.8 °F 83% 28.95 in 5.0 mi East 19.6 mph 35.7 mph 0.02 in Rain Rain
6:53 PM 66.9 °F 62.1 °F 84% 28.97 in 3.0 mi East 24.2 mph 47.2 mph 0.06 in Rain Rain